Flag for U.S.A. Weather past 2 weeks in Philadelphia, Pennsylvania, U.S.A.

Now
79 °F

Passing clouds.


Feels Like: 79 °F
Forecast: 60 / 81 °F
Wind: 6 mph from North

Location: Philadelphia International Airport

Current Time: Aug 28, 2015 at 1:53:16 PM

Latest Report: Aug 28, 2015 at 11:54 AM


Visibility: 10 mi

Pressure: 30.20 "Hg

Humidity: 39%

Dew point: 52 °F

Location of PhiladelphiaLocation

Historic Weather in Philadelphia — Graph

°F

Philadelphia temperature yesterday

Maximum temperature yesterday: 80 °F (at 1:54 PM)
Minimum temperature yesterday: 64 °F (at 5:54 AM)
Average temperature yesterday: 73 °F

Past Weeks' High & Low Weather Summary

 TemperatureHumidityPressure
High94 °F (Aug 17, 3:54 PM)91% (Aug 19, 6:54 AM)30.21 "Hg (Aug 19, 6:54 AM)
Low64 °F (Aug 27, 5:54 AM)22% (Aug 22, 1:54 PM)29.82 "Hg (Aug 24, 5:54 PM)
Average79 °F56%30.03 "Hg
* Reported Aug 13 11:54 AM — Aug 28 11:54 AM, Philadelphia, Weather by CustomWeather, © 2015

Note: Actual official high and low records may vary slightly from our data, if they occured in-between our weather recording intervals... More about our weather records

Advertising

Philadelphia weather history for previous 24 hours

 ConditionsComfort  
Time TempWeatherWind HumidityBarometerVisibility
11:54 AM
Fri, Aug 28
79 °FPassing clouds.6 mph39%30.20 "Hg10 mi
10:54 AM77 °FSunny.5 mph40%30.21 "Hg10 mi
9:54 AM74 °FPassing clouds.No wind45%30.20 "Hg10 mi
8:54 AM73 °FPassing clouds.6 mph50%30.19 "Hg10 mi
7:54 AM68 °FPassing clouds.5 mph63%30.19 "Hg10 mi
6:54 AM66 °FPassing clouds.3 mph65%30.17 "Hg10 mi
5:54 AM64 °FPassing clouds.5 mph70%30.16 "Hg10 mi
4:54 AM64 °FClear.5 mph68%30.16 "Hg10 mi
3:54 AM66 °FClear.No wind65%30.15 "Hg10 mi
2:54 AM66 °FClear.6 mph65%30.15 "Hg10 mi
1:54 AM67 °FPassing clouds.6 mph63%30.15 "Hg10 mi
12:54 AM68 °FPassing clouds.6 mph63%30.15 "Hg10 mi
11:54 PM
Thu, Aug 27
70 °FPassing clouds.3 mph57%30.15 "Hg10 mi
10:54 PM71 °FClear.7 mph55%30.14 "Hg10 mi
9:54 PM73 °FClear.7 mph50%30.13 "Hg10 mi
8:54 PM75 °FPassing clouds.7 mph45%30.11 "Hg10 mi
7:54 PM76 °FScattered clouds.7 mph42%30.08 "Hg10 mi
6:54 PM79 °FScattered clouds.13 mph36%30.07 "Hg10 mi
5:54 PM80 °FPartly sunny.13 mph38%30.08 "Hg10 mi
4:54 PM79 °FPartly sunny.13 mph39%30.07 "Hg10 mi
3:54 PM80 °FPartly sunny.13 mph36%30.06 "Hg10 mi
2:54 PM79 °FPartly sunny.15 mph38%30.07 "Hg10 mi
1:54 PM80 °FBroken clouds.6 mph36%30.08 "Hg10 mi
Weather by CustomWeather, © 2015

See weather overviewHow to use our weather pages